N9DRW Weather Reports


Display with metric or nautical units.
time (UTC)temp
F
wind
direction
speed
MPH
gust
MPH
rain 1hr
in
rain 24hr
in
rain mn
in
humidity
%
barometer
mb
20260506212206 51 329 8.0 16.0 0.00 0.00 0.00 42
20260506211206 50 0 6.0 16.0 0.00 0.00 0.00 43
20260506210206 49 290 7.0 20.0 0.00 0.00 0.00 44
20260506205205 49 299 7.0 18.0 0.00 0.00 0.00 44
20260506204206 49 315 8.0 18.0 0.00 0.00 0.00 44
20260506203205 50 311 7.0 18.0 0.00 0.00 0.00 43
20260506202206 51 273 3.0 16.0 0.00 0.00 0.00 42
20260506201206 51 315 5.0 14.0 0.00 0.00 0.00 42
20260506200206 51 318 7.0 15.0 0.00 0.00 0.00 40
20260506195206 52 320 6.0 13.0 0.00 0.00 0.00 41
20260506194206 51 338 4.0 17.0 0.00 0.00 0.00 42
20260506193205 52 346 5.0 16.0 0.00 0.00 0.00 43
20260506192206 52 318 8.0 18.0 0.00 0.00 0.00 40
20260506191206 52 345 4.0 13.0 0.00 0.00 0.00 39
20260506190206 51 332 6.0 17.0 0.00 0.00 0.00 41
20260506185205 52 314 8.0 16.0 0.00 0.00 0.00 38
20260506184206 54 325 5.0 18.0 0.00 0.00 0.00 40
20260506183205 52 320 5.0 13.0 0.00 0.00 0.00 42
20260506182206 52 311 5.0 12.0 0.00 0.00 0.00 40
20260506181205 52 357 5.0 14.0 0.00 0.00 0.00 40
20260506180206 53 0 6.0 13.0 0.00 0.00 0.00 38
20260506175206 52 313 6.0 14.0 0.00 0.00 0.00 42
20260506174206 52 23 8.0 14.0 0.00 0.00 0.00 39
20260506173206 52 346 4.0 15.0 0.00 0.00 0.00 45
20260506172206 51 307 7.0 15.0 0.00 0.00 0.00 44
20260506171206 51 330 8.0 15.0 0.00 0.00 0.00 43
20260506170206 51 300 7.0 12.0 0.00 0.00 0.00 45
20260506165206 52 325 4.0 15.0 0.00 0.00 0.00 44
20260506164206 52 296 5.0 13.0 0.00 0.00 0.00 43
20260506163206 50 280 7.0 15.0 0.00 0.00 0.00 43
20260506162213 49 331 5.0 13.0 0.00 0.00 0.00 48
20260506161206 50 317 5.0 12.0 0.00 0.00 0.00 47
20260506160206 49 319 6.0 15.0 0.00 0.00 0.00 46
20260506155206 49 334 5.0 14.0 0.00 0.00 0.00 48
20260506154206 49 317 4.0 14.0 0.00 0.00 0.00 48
20260506153205 50 306 4.0 10.0 0.00 0.00 0.00 48
20260506152206 50 233 3.0 8.0 0.00 0.00 0.00 48
20260506151206 49 27 4.0 9.0 0.00 0.00 0.00 48
20260506150206 49 325 3.0 12.0 0.00 0.00 0.00 50
20260506145206 48 341 4.0 13.0 0.00 0.00 0.00 52
20260506144206 48 64 3.0 8.0 0.00 0.00 0.00 53
20260506143206 47 311 5.0 13.0 0.00 0.00 0.00 53
20260506142206 47 346 5.0 12.0 0.00 0.00 0.00 51
20260506141206 46 356 3.0 8.0 0.00 0.00 0.00 54
20260506140206 46 341 5.0 12.0 0.00 0.00 0.00 57
20260506135206 44 12 5.0 12.0 0.00 0.00 0.00 58
20260506134206 44 273 2.0 9.0 0.00 0.00 0.00 60
20260506133206 43 351 4.0 10.0 0.00 0.00 0.00 60
20260506132206 42 5 3.0 10.0 0.00 0.00 0.00 61
20260506131205 41 16 3.0 9.0 0.00 0.00 0.00 64
20260506130205 41 11 3.0 8.0 0.00 0.00 0.00 64
20260506125205 41 347 2.0 9.0 0.00 0.00 0.00 64
20260506124206 41 311 5.0 9.0 0.00 0.00 0.00 64
20260506123209 41 326 3.0 10.0 0.00 0.00 0.00 64
20260506122206 41 331 2.0 7.0 0.00 0.00 0.00 66
20260506121206 40 329 5.0 10.0 0.00 0.00 0.00 65
20260506120205 40 315 3.0 8.0 0.00 0.00 0.00 66
20260506115205 40 320 2.0 7.0 0.00 0.00 0.00 67
20260506114206 39 278 2.0 5.0 0.00 0.00 0.00 69
20260506113205 38 301 2.0 3.0 0.00 0.00 0.00 69
20260506112205 38 287 1.0 2.0 0.00 0.00 0.00 69
20260506111205 38 301 0.0 2.0 0.00 0.00 0.00 69
20260506110206 38 309 1.0 1.0 0.00 0.00 0.00 69
20260506105206 38 289 1.0 3.0 0.00 0.00 0.00 68
20260506104206 38 291 1.0 3.0 0.00 0.00 0.00 68
20260506103209 39 278 1.0 6.0 0.00 0.00 0.00 67
20260506102206 39 298 1.0 5.0 0.00 0.00 0.00 66
20260506101205 39 321 2.0 5.0 0.00 0.00 0.00 64
20260506100205 39 308 1.0 2.0 0.00 0.00 0.00 64
20260506095205 39 307 1.0 3.0 0.00 0.00 0.00 65
20260506094205 39 298 0.0 2.0 0.00 0.00 0.00 65
20260506093206 39 290 1.0 2.0 0.00 0.00 0.00 65
20260506092206 39 298 1.0 3.0 0.00 0.00 0.00 66
20260506091206 38 289 1.0 2.0 0.00 0.00 0.00 67
20260506090205 38 266 0.0 0.0 0.00 0.00 0.00 68
20260506085206 38 266 0.0 1.0 0.00 0.00 0.00 68
20260506084206 38 274 0.0 0.0 0.00 0.00 0.00 69
20260506083209 39 274 0.0 1.0 0.00 0.00 0.00 68
20260506082206 39 286 1.0 2.0 0.00 0.00 0.00 66
20260506081205 39 294 1.0 3.0 0.00 0.00 0.00 65
20260506080205 39 285 1.0 2.0 0.00 0.00 0.00 63
20260506073209 40 270 0.0 0.0 0.00 0.00 0.00 62
20260506072206 40 270 0.0 0.0 0.00 0.00 0.00 60
20260506071206 40 270 0.0 1.0 0.00 0.00 0.00 61
20260506070206 40 302 0.0 0.0 0.00 0.00 0.00 62
20260506062205 40 314 0.0 0.0 0.00 0.00 0.00 67
20260506061206 41 314 1.0 1.0 0.00 0.00 0.00 63
20260506060206 40 292 0.0 0.0 0.00 0.00 0.00 60
20260506051206 42 292 0.0 0.0 0.00 0.00 0.00 56
20260506050206 43 292 0.0 0.0 0.00 0.00 0.00 54
20260506044206 43 292 0.0 0.0 0.00 0.00 0.00 55
20260506043209 44 292 0.0 0.0 0.00 0.00 0.00 53
20260506042206 44 292 0.0 0.0 0.00 0.00 0.00 52
20260506041205 44 292 0.0 0.0 0.00 0.00 0.00 51
20260506040206 44 292 0.0 0.0 0.00 0.00 0.00 51
20260506035206 45 292 0.0 0.0 0.00 0.00 0.00 53
20260506034206 46 292 0.0 0.0 0.00 0.00 0.00 52
20260506033206 46 292 0.0 0.0 0.00 0.00 0.00 48
20260506032205 47 292 0.0 1.0 0.00 0.00 0.00 48
20260506031206 47 1 0.0 2.0 0.00 0.00 0.00 46
20260506025206 48 267 0.0 2.0 0.00 0.00 0.00 44
20260506024206 48 267 0.0 1.0 0.00 0.00 0.00 44
20260506023206 49 345 0.0 5.0 0.00 0.00 0.00 44
20260506022206 49 345 1.0 6.0 0.00 0.00 0.00 43
20260506021206 49 354 1.0 6.0 0.00 0.00 0.00 42
20260506020205 49 315 1.0 5.0 0.00 0.00 0.00 42
20260506015205 50 5 1.0 9.0 0.00 0.00 0.00 41
20260506014206 50 1 3.0 9.0 0.00 0.00 0.00 41
20260506013206 50 347 3.0 9.0 0.00 0.00 0.00 40
20260506012206 51 69 1.0 8.0 0.00 0.00 0.00 40
20260506011206 51 9 3.0 9.0 0.00 0.00 0.00 39
20260506010206 51 326 3.0 9.0 0.00 0.00 0.00 38
20260506005205 51 10 6.0 12.0 0.00 0.00 0.00 37
20260506004206 52 16 5.0 10.0 0.00 0.00 0.00 37
20260506003209 52 355 6.0 14.0 0.00 0.00 0.00 37
20260506002206 53 334 7.0 15.0 0.00 0.00 0.00 36
20260506001206 54 347 3.0 13.0 0.00 0.00 0.00 36
20260506000206 53 319 5.0 12.0 0.00 0.00 0.00 36
20260505235206 54 356 2.0 12.0 0.00 0.00 0.00 37
20260505234206 53 10 5.0 9.0 0.00 0.00 0.00 36
20260505233205 53 329 6.0 15.0 0.00 0.00 0.00 36
20260505232206 54 328 6.0 13.0 0.00 0.00 0.00 35
20260505231206 54 27 4.0 14.0 0.00 0.00 0.00 35
20260505230205 55 295 7.0 17.0 0.00 0.00 0.00 34
20260505225206 55 345 6.0 16.0 0.00 0.00 0.00 34
20260505224206 55 337 5.0 17.0 0.00 0.00 0.00 35
20260505223206 55 25 4.0 20.0 0.00 0.00 0.00 34
20260505222206 56 328 4.0 15.0 0.00 0.00 0.00 34
20260505221205 56 325 7.0 16.0 0.00 0.00 0.00 33
20260505220206 56 324 4.0 16.0 0.00 0.00 0.00 33
20260505215205 57 9 6.0 22.0 0.00 0.00 0.00 32
20260505214206 57 356 9.0 16.0 0.00 0.00 0.00 30
20260505213206 56 322 7.0 24.0 0.00 0.00 0.00 31